www.pogodaiklimat.ru

Погода и климат >> Архив погоды >> Узбекистан >> Машикудук


ПОГОДА в Машикудуке

  • Прогноз погоды в Машикудуке
  • Монитор погоды в Машикудуке

АРХИВ ПОГОДЫ в Машикудуке

Время (UTC), дата Ветер
(напр.,м/с)
 
Видим.   Явления Облачность Т
(С)
Тd
(С)
f
(%)
Тe
(С)
Тes
(С)
Комфортность P
(гПа)
Po
(гПа)
Тmin
(С)
Tmax
(С)
R
(мм)
R24
(мм)
S
(см)
03 10.09 штиль 0 20 км ясно +14.2 +4.1 51 +14 +17 1023.1 999.0
06 10.09 СВ 2 20 км ясно +21.0 +7.7 42 +23 +34 комфорт 1022.7 999.2 +13.0
09 10.09 СВ 1 20 км ясно +23.8 +6.5 33 +24 +38 комфорт 1020.9 997.8
15 10.09 СВ 1 20 км ясно +21.4 +5.0 34 +22 +22 комфорт 1020.4 997.0 +25.2
18 10.09 СВ 2 20 км ясно +19.2 +3.8 36 +20 +20 1020.4 996.9 +25.2
21 10.09 СВ 2 20 км ясно +17.0 +4.0 42 +17 +17 1021.1 997.4
00 11.09 СВ 3 20 км ясно +15.4 +3.6 45 +15 +15 1020.7 996.9
03 11.09 СВ 4 20 км ясно +17.0 +4.6 44 +17 +18 1021.8 998.0
06 11.09 С 5 20 км ясно +23.2 +5.0 31 +23 +29 комфорт 1020.8 997.6 +15.4
09 11.09 СВ 4 20 км ясно +26.8 +4.0 23 +26 +34 жарко 1019.9 997.0
12 11.09 В 4 20 км ясно +27.4 +3.8 22 +26 +28 жарко 1019.3 996.4
15 11.09 СВ 1 20 км ясно +23.0 +5.3 32 +23 +23 комфорт 1019.8 996.6 +27.4
00 12.09 СВ 4 20 км ясно +16.2 +3.4 42 +16 +16 1019.8 996.0
03 12.09 В 3 20 км ясно +16.4 +2.5 39 +16 +18 1020.1 996.3
06 12.09 СВ 6 20 км ясно +26.0 +2.3 21 +25 +29 комфорт 1019.3 996.3 +16.2
09 12.09 СВ 5 20 км ясно +28.5 +2.9 19 +27 +33 жарко 1016.9 994.2
12 12.09 В 3 20 км ясно +29.3 +2.3 18 +27 +29 жарко 1014.8 992.2
15 12.09 СВ 2 20 км ясно +24.2 +5.0 29 +24 +24 комфорт 1015.8 992.8 +29.3
18 12.09 СВ 4 20 км ясно +22.8 +5.0 31 +23 +23 комфорт 1016.4 993.2 +29.3
21 12.09 СВ 4 20 км ясно +20.2 +4.8 36 +21 +21 комфорт 1017.0 993.6
00 13.09 СВ 2 20 км ясно +16.6 +2.9 40 +17 +17 1016.5 992.9
03 13.09 СВ 2 20 км 3/0
[Ci fib]
+18.0 +3.2 37 +19 +20 1017.0 993.4
06 13.09 СВ 2 20 км 3/0
[Ci fib]
+25.6 +5.0 27 +25 +35 комфорт 1017.0 994.0 +16.6
09 13.09 СВ 1 20 км ясно +29.0 +6.1 23 +28 +41 жарко 1015.1 992.5
12 13.09 СВ 1 20 км ясно +29.8 +4.8 20 +28 +31 жарко 1013.8 991.3
15 13.09 С 2 20 км ясно +25.2 +3.2 24 +24 +24 комфорт 1014.1 991.2 +29.8
18 13.09 С 2 20 км ясно +22.4 +4.0 30 +22 +22 комфорт 1014.8 991.6 +29.8
21 13.09 СВ 4 20 км 3/0
[Ci fib]
+20.8 +4.3 34 +22 +22 комфорт 1014.4 991.2
00 14.09 штиль 0 20 км 9/0
[Ac As]
+15.4 +5.0 50 +15 +15 1015.6 991.9
03 14.09 штиль 0 20 км 5/0
[Ac As]
+16.4 +4.0 44 +16 +18 1016.4 992.8
09 14.09 штиль 0 20 км 4/0
[Ci sp]
+30.0 +6.8 23 +29 +43 жарко 1003.5 991.2
12 14.09 З 1 20 км 8/0
[Ac As]
+29.8 +6.1 22 +28 +30 жарко 1013.7 991.2
15 14.09 штиль 0 20 км 8/0
[Ac As]
+27.0 +5.6 25 +26 +26 жарко 1013.3 990.5 +30.0
18 14.09 штиль 0 20 км 8/0
[Ac As]
+23.2 +4.8 30 +23 +23 комфорт 1013.8 990.7 +30.0
21 14.09 СВ 1 20 км 3/0
[Ci sp]
+18.6 +2.3 34 +20 +20 1014.3 990.8
00 15.09 СВ 1 20 км 4/0
[Ci sp]
+14.8 +1.3 40 +16 +16 1014.9 991.2
03 15.09 штиль 0 20 км 3/0
[Ci sp]
+15.4 +0.4 36 +15 +18 1018.4 994.6
06 15.09 З 2 20 км ясно +26.6 +5.1 25 +26 +36 жарко 1017.5 994.6 +14.8
09 15.09 З 4 20 км 6/6 600 м
[Cu med, cong]
+27.8 +6.4 26 +27 +30 жарко 1016.1 993.3
12 15.09 З 3 20 км 4/0
[Ci sp]
+28.2 +7.0 26 +27 +29 жарко 1016.3 993.5
15 15.09 З 1 20 км ясно +25.6 +6.1 29 +25 +25 комфорт 1017.4 994.4 +28.2
18 15.09 штиль 0 20 км ясно +17.8 +7.6 51 +18 +18 1019.1 995.6 +28.2
21 15.09 штиль 0 20 км ясно +15.2 +6.5 56 +15 +15 1019.9 996.1
00 16.09 штиль 0 20 км ясно +11.1 +2.9 57 +11 +11 1020.1 995.9
03 16.09 штиль 0 20 км ясно +14.0 +2.1 44 +14 +16 1020.1 996.2
06 16.09 З 1 20 км ясно +25.0 +3.8 25 +24 +37 комфорт 1019.9 996.9 +11.1
12 16.09 штиль 0 20 км ясно +27.8 +9.4 32 +28 +31 жарко 1017.4 994.6
18 16.09 штиль 0 20 км ясно +17.6 +6.8 49 +18 +18 1019.2 995.6 +27.8

 

Местоположение метеостанции Машикудук (Навоийская область, Узбекистан): широта 41.05 долгота 65.28 высота над уровнем моря 200 м.

В архиве по умолчанию представлена погода в Машикудуке за последнюю неделю. Архивные данные за месяц целиком и за предыдущие месяцы, начиная с января 2011 года, Вы можете получить, выбрав интересующий диапазон дат из раскрывающегося списка и нажав кнопку "Ввод!".


*Определитесь, кто Вы:
робот инопланетянин человек

Внимание! Время в таблицах - всемирное. Для получения местного времени необходимо прибавить поправку, которая равна 5 ч.

Смотрите также архив погоды в соседних городах и на ближайших метеорологических станциях:

Погода в Нурате (Навоийская область, Узбекистан) (65 км)
Погода в Айякагитме (Узбекистан) (79 км)
Погода в Тамдыбулаке (Навоийская область, Узбекистан) (94 км)
Погода в Зарафшане (Навоийская область, Узбекистан) (102 км)
Погода в Навои (Навоийская область, Узбекистан) (102 км)
Погода в Бухаре (Бухарская область, Узбекистан) (158 км)
Погода на Каттакурган вдхр (Самаркандская область, Узбекистан) (164 км)
Погода в Джангельды (Бухарская область, Узбекистан) (165 км)
Погода в Учкудуке (Навоийская область, Узбекистан) (176 км)
Погода в Янгикишлаке (Джизакская область, Узбекистан) (176 км)

Пояснения к столбцам:

Ветер - указаны скорость ветра в м/с - средняя за 10 мин, порывы в срок и между сроками (в фигурных скобках) и направление, откуда дует ветер: С - северный, СВ - северо-восточный, В - восточный, ЮВ - юго-восточный, Ю - южный, ЮЗ - юго-западный, З - западный, СЗ - северо-западный.
Видимость - горизонтальная дальность видимости в метрах или километрах. При видимости от 1 до 10 км при отсутствии осадков обычно наблюдается дымка, при ухудшении видимости до 1 км и менее - туман. В сухую погоду видимость может ухудшаться дымом, пылью или мглою.
Явления - указаны атмосферные явления, наблюдавшиеся в срок или в последний час перед сроком; фигурными скобками обозначены явления, наблюдавшиеся между сроками (за 1-3 часа до срока); квадратными скобками обозначены град или гололедные отложения с указанием их диаметра в мм.
Облачность - указаны через наклонную черту общая и нижняя облачность в баллах и высота нижней границы облаков в метрах; квадратными скобками обозначены формы облаков: Ci - перистые, Cs - перисто-слоистые, Cc - перисто-кучевые, Ac - высококучевые, As - высокослоистые, Sc - слоисто-кучевые, Ns - слоисто-дождевые, Cu - кучевые, Cb - кучево-дождевые. Подробнее классификацию облаков см. в Атласе облаков (PDF).
T - Температура воздуха - температура, измеренная на высоте 2 м над землей.
Td - Температура точки росы - температура, при понижении до которой содержащийся в воздухе водяной пар достигнет насыщения.
f - Относительная влажность воздуха - влажноcть воздуха, измеренная на высоте 2 м над землей.
Te - Эффективная температура - температура, которую ощущает одетый по сезону человек в тени. Характеристика душности погоды. При расчете учитывается влияние влажности воздуха и скорости ветра на теплоощущения человека.
Tes - Эффективная температура на солнце - температура, которую ощущает человек, с поправкой на солнечный нагрев. Характеристика знойности погоды. Зависит от высоты солнца над горизонтом, облачности и скорости ветра. Ночью, в пасмурную погоду, а также при ветре 12 м/с и более поправка равна нулю.
P - Атмосферное давление - приведенное к уровню моря атмосферное давление.
Po - Атмосферное давление - измеренное на уровне метеостанции атмосферное давление.
Tmin - Минимальная температура - минимум температуры воздуха на высоте 2 м над землей.
Tmax - Максимальная температура - максимум температуры воздуха на высоте 2 м над землей.
R - Количество осадков - Количество выпавших осадков за период времени, мм. При наведении курсора мыши на число - период времени, за который выпало указанное количество осадков.
R24 - Количество осадков - Количество выпавших осадков за 24 часа, мм.
S - Снежный покров - Высота снежного покрова, см. При наведении курсора мыши на число - состояние снежного покрова и степень покрытия местности в баллах.